Overview Statistics Trail Chart Weather Telemetry Raw packets
 

This is the latest recevied weather packets stored in our database for station/object K5SVV. If no packets are shown the sender has not sent any weather packets the latest 10 day(s).

<< 1 2 3 4 5 6 >>
Time Temp. Humidity Pressure Rain* Wind** Luminosity Snow
1788652347 36.11° C 45% 1010.5 hPa 0 mm - 52 W/m² -
1788652043 36.11° C 45% 1010.2 hPa 0 mm - 60 W/m² -
1788651738 36.67° C 44% 1010.2 hPa 0 mm - 75 W/m² -
1788651433 36.67° C 44% 1010.3 hPa 0 mm - 133 W/m² -
1788651133 36.67° C 43% 1010.4 hPa 0 mm - 89 W/m² -
1788650828 36.67° C 44% 1010.2 hPa 0 mm - 77 W/m² -
1788650523 36.67° C 44% 1010.3 hPa 0 mm - 147 W/m² -
1788650219 36.67° C 44% 1010.4 hPa 0 mm - 78 W/m² -
1788649915 36.67° C 44% 1010.4 hPa 0 mm - 169 W/m² -
1788649610 36.67° C 44% 1010.3 hPa 0 mm - 186 W/m² -
1788649308 36.67° C 44% 1010.5 hPa 0 mm - 209 W/m² -
1788649008 36.67° C 44% 1010.3 hPa 0 mm - 232 W/m² -
1788648703 36.67° C 44% 1010.1 hPa 0 mm - 222 W/m² -
1788648401 36.67° C 44% 1010.2 hPa 0 mm - 266 W/m² -
1788648097 36.11° C 45% 1010.3 hPa 0 mm - 213 W/m² -
1788647793 36.67° C 45% 1010.3 hPa 0 mm - 87 W/m² -
1788647490 36.67° C 44% 1010.1 hPa 0 mm - 295 W/m² -
1788647185 35.56° C 45% 1009.9 hPa 0 mm - 329 W/m² -
1788646880 35.56° C 46% 1009.9 hPa 0 mm - 94 W/m² -
1788646576 35.56° C 45% 1010.2 hPa 0 mm - 71 W/m² -
1788646272 36.11° C 45% 1010.3 hPa 0 mm - 68 W/m² -
1788645967 36.67° C 44% 1010.4 hPa 0 mm - 73 W/m² -
1788645664 37.22° C 43% 1010.4 hPa 0 mm - 90 W/m² -
1788645363 37.78° C 41% 1010.3 hPa 0 mm - 107 W/m² -
1788645059 38.33° C 40% 1009.9 hPa 0 mm - 499 W/m² -

* Rain latest hour (hover to see other rain measurements)
** Current wind speed in m/s (hover to see current wind gust speed)